Location: Hope
(40.9110°N, 74.9680°W)
Time: 14:21:40
(UTC-05:00)

FORTE - Pass Details

Date: 05 December 2021
Orbit: 785 x 822 km, 70.0° (Epoch: 23 January)

Event Time Altitude Azimuth Distance (km) Brightness Sun altitude
Rises 05:32:18 0° 192° (SSW) 3,259 10.3 -17.8°
Reaches altitude 10° 05:34:42 10° 189° (S) 2,336 9.6 -17.3°
Maximum altitude 05:39:56 59° 111° (ESE) 907 7.7 -16.4°
Drops below altitude 10° 05:45:14 10° 32° (NNE) 2,366 9.7 -15.4°
Sets 05:47:41 0° 29° (NNE) 3,304 10.4 -15.0°
